CZ-3B R/B, 62375

Orbit data source: Space-Track

CZ-3B R/B, 62375 is space debris in HEO originally from a launch on Fri, 20 Dec 2024 UTC launched from the Xichang Space Center, China (XSC). Debris objects in space refer to the collection of defunct objects orbiting the Earth. Examples of debris include non-operational satellites, rocket bodies, and fragments generated from explosions, collisions, or faulty payload assembly.

Loading next visibility...
Identifier
62375, 2024-246B
Orbit
HEO
Country
Flag of CNCN / PRC
Related business
Manufacturer
CALT
Mission
Spacecraft
Bus & Motor
CZ-3A STAGE 3, Unknown motor
Mass
~2,800 kg wet, ~2,800 kg dry
Launch date (UTC)
2024-12-20 (1 year ago)
Launch vehicle
Unknown
Launch site
Xichang Space Center, China (XSC)
Object type
Payload
Rocket body
Debris
Shape & HBR
Cyl + 1 Nozzle, 6.2 m
Radar Cross Section
32.704 m², Large (>1 m²)

Expand to show TLE details & history
Last TLE update: 1 day ago

TLE from 1 day ago
0 CZ-3B R/B
1 62375U 24246B   26124.66345083  .00104048  18387-6  79101-3 0  9992
2 62375  28.0912  34.3075 5961912 277.7686  22.2987  4.21438110 15678
Epoch: 2026-05-04T15:55Z
TLE epoch observation values (Epoch: 2026-05-04T15:55:22.151Z)
Latitude
0.00004°
Longitude
-67.09799°
Altitude
3,295.642 km
Speed
7.602 km/s
True Right ascension
02h 17m 10s
True Declination
0° 00' 00"
Sunlit
Object was in daylight at epoch
Visualization orbit readout
Latitude
Unknown
Longitude
Unknown
Altitude
Unknown
Speed
Unknown
Apparent Right ascension
Unknown
Apparent Declination
Unknown
Sunlit
N/A
Visualization observer readout
Local Sidereal Time
23:37:24
Azimuth
Unknown
Elevation
Unknown
Doppler factor
Unknown
Orbital elements
Apogee altitude
19,469.763 km
Perigee altitude
160.935 km
Semi-major axis
16,193.486 km
Eccentricity
0.59619
Inclination
28.0912°
RAAN
34.3075°
Arg. of periapsis
277.7686°
True anomaly
82.32295°
Mean anomaly
22.2987°
Eccentric anomaly
47.47242°
Mean motion
1.05325 °/min
Orbital period
341.8 mins
BSTAR
0.00079101
Loading maneuver chart data...
Computing Atmospheric mass density...
Loading historical data...
Loading historical data...
Loading historical data...
Loading historical data...
Loading historical data...
Loading historical data...
Loading historical data...
Other satellites on launch #246 in the year 2024 (2024-12-20 UTC)

Documentation

Showing up to 5 results
|